Location: De Har
(53.3413°N, 6.6858°E)
Time: 20:33:20
(UTC+00:00)

Meteor 1-11 Rocket - Pass Details

Date: 22 April 2026
Orbit: 830 x 914 km, 81.2° (Epoch: 21 May)

Event Time Altitude Azimuth Distance (km) Brightness Sun altitude
Rises 02:57:53 0° 341° (NNW) 3,550 7.2 -11.2°
Reaches altitude 10° 03:00:34 10° 333° (NNW) 2,595 6.4 -10.9°
Maximum altitude 03:05:50 35° 271° (W) 1,412 4.5 -10.3°
Drops below altitude 10° 03:10:59 10° 207° (SSW) 2,533 5.6 -9.6°
Enters shadow 03:11:34 - 205° (SSW) 2,735 5.8 -9.6°
